Location: Lombard
(41.8800°N, 88.0080°W)
Time: 00:03:04
(UTC-05:00)

Tiros 1 - Pass Details

Date: 04 February 2023
Orbit: 628 x 662 km, 48.4° (Epoch: 20 March)

Event Time Altitude Azimuth Distance (km) Brightness Sun altitude
Rises 06:37:40 0° 291° (WNW) 2,943 - -5.0°
Exits shadow 06:39:12 - 285° (WNW) 2,400 9.4 -4.8°
Reaches altitude 10° 06:40:17 10° 278° (W) 2,037 9.1 -4.6°
Maximum altitude 06:44:08 25° 223° (SW) 1,289 8.5 -3.9°
Drops below altitude 10° 06:48:00 10° 168° (SSE) 2,046 10.2 -3.2°
Sets 06:50:39 0° 155° (SSE) 2,959 11.3 -2.7°
